Time,TemperatureF,DewpointF,PressureIn,WindDirection,WindDirectionDegrees,WindSpeedMPH,WindSpeedGustMPH,Humidity,HourlyPrecipIn,Conditions,Clouds,dailyrainin,SoftwareType,DateUTC
2013-08-28 00:03:00,58.1,57.0,29.87,NNE,22,0.0,0.0,95,0.00,,,0.00,weatherlink.com 1.10,2013-08-28 07:03:00,
2013-08-28 00:18:00,58.2,57.0,29.87,NNE,22,0.0,0.0,95,0.00,,,0.00,weatherlink.com 1.10,2013-08-28 07:18:00,
2013-08-28 00:33:00,58.7,57.0,29.87,NNE,29,0.0,1.0,95,0.00,,,0.00,weatherlink.com 1.10,2013-08-28 07:33:00,
2013-08-28 00:48:00,58.5,57.0,29.88,NNE,28,0.0,0.0,95,0.00,,,0.00,weatherlink.com 1.10,2013-08-28 07:48:00,
2013-08-28 01:03:00,57.9,57.0,29.88,NNE,28,0.0,0.0,96,0.00,,,0.00,weatherlink.com 1.10,2013-08-28 08:03:00,
2013-08-28 01:18:00,57.9,57.0,29.88,NNE,28,0.0,0.0,95,0.00,,,0.00,weatherlink.com 1.10,2013-08-28 08:18:00,
2013-08-28 01:33:00,58.0,57.0,29.87,NNE,24,0.0,1.0,96,0.00,,,0.00,weatherlink.com 1.10,2013-08-28 08:33:00,
2013-08-28 01:48:00,58.1,57.0,29.87,North,360,0.0,0.0,96,0.00,,,0.00,weatherlink.com 1.10,2013-08-28 08:48:00,
2013-08-28 02:03:00,57.8,57.0,29.87,North,360,0.0,0.0,96,0.00,,,0.00,weatherlink.com 1.10,2013-08-28 09:03:00,
2013-08-28 02:18:00,57.3,56.0,29.87,WNW,294,0.0,0.0,96,0.00,,,0.00,weatherlink.com 1.10,2013-08-28 09:18:00,
2013-08-28 02:33:00,57.4,56.0,29.87,North,360,0.0,2.0,96,0.00,,,0.00,weatherlink.com 1.10,2013-08-28 09:33:00,
2013-08-28 02:48:00,57.5,56.0,29.87,North,10,0.0,1.0,96,0.00,,,0.00,weatherlink.com 1.10,2013-08-28 09:48:00,
2013-08-28 03:03:00,57.5,56.0,29.87,NNE,20,0.0,3.0,96,0.00,,,0.00,weatherlink.com 1.10,2013-08-28 10:03:00,
2013-08-28 03:18:00,57.5,56.0,29.87,NNE,13,0.0,1.0,96,0.00,,,0.00,weatherlink.com 1.10,2013-08-28 10:18:00,
2013-08-28 03:33:00,57.3,56.0,29.87,NNE,13,0.0,0.0,96,0.00,,,0.00,weatherlink.com 1.10,2013-08-28 10:33:00,
2013-08-28 03:48:00,57.4,56.0,29.86,NE,40,1.0,3.0,96,0.00,,,0.00,weatherlink.com 1.10,2013-08-28 10:48:00,
2013-08-28 04:03:00,57.4,56.0,29.86,NNE,18,1.0,4.0,96,0.00,,,0.00,weatherlink.com 1.10,2013-08-28 11:03:00,
2013-08-28 04:18:00,57.3,56.0,29.86,NNE,22,0.0,3.0,96,0.00,,,0.00,weatherlink.com 1.10,2013-08-28 11:18:00,
2013-08-28 04:33:00,57.1,56.0,29.86,NNE,22,0.0,0.0,96,0.00,,,0.00,weatherlink.com 1.10,2013-08-28 11:33:00,
2013-08-28 04:48:00,56.9,56.0,29.86,NNE,22,0.0,0.0,96,0.00,,,0.00,weatherlink.com 1.10,2013-08-28 11:48:00,
2013-08-28 05:03:00,56.6,56.0,29.86,NNE,22,0.0,2.0,96,0.00,,,0.00,weatherlink.com 1.10,2013-08-28 12:03:00,
2013-08-28 05:18:00,56.6,56.0,29.87,NNE,22,0.0,1.0,96,0.00,,,0.00,weatherlink.com 1.10,2013-08-28 12:18:00,
2013-08-28 05:33:00,56.1,55.0,29.87,NNE,25,0.0,3.0,96,0.00,,,0.00,weatherlink.com 1.10,2013-08-28 12:33:00,
2013-08-28 05:48:00,55.9,55.0,29.87,NNE,25,0.0,4.0,96,0.00,,,0.00,weatherlink.com 1.10,2013-08-28 12:48:00,
2013-08-28 06:03:00,55.9,55.0,29.87,NNE,23,0.0,6.0,96,0.00,,,0.00,weatherlink.com 1.10,2013-08-28 13:03:00,
2013-08-28 06:18:00,55.7,55.0,29.87,NNE,21,4.0,6.0,96,0.00,,,0.00,weatherlink.com 1.10,2013-08-28 13:18:00,
2013-08-28 06:34:00,55.3,54.0,29.88,NNE,19,2.0,7.0,96,0.00,,,0.00,weatherlink.com 1.10,2013-08-28 13:34:00,
2013-08-28 06:49:00,55.2,54.0,29.89,NNE,24,2.0,6.0,96,0.00,,,0.00,weatherlink.com 1.10,2013-08-28 13:49:00,
2013-08-28 07:04:00,55.1,54.0,29.89,NNE,22,0.0,6.0,96,0.00,,,0.00,weatherlink.com 1.10,2013-08-28 14:04:00,
2013-08-28 07:19:00,55.0,54.0,29.90,NNE,24,0.0,5.0,97,0.00,,,0.00,weatherlink.com 1.10,2013-08-28 14:19:00,
2013-08-28 07:34:00,55.0,54.0,29.89,NNE,15,3.0,5.0,96,0.00,,,0.00,weatherlink.com 1.10,2013-08-28 14:34:00,
2013-08-28 07:49:00,55.0,54.0,29.90,NNE,19,4.0,5.0,97,0.00,,,0.00,weatherlink.com 1.10,2013-08-28 14:49:00,
2013-08-28 08:04:00,55.4,54.0,29.90,NNE,33,0.0,2.0,96,0.00,,,0.00,weatherlink.com 1.10,2013-08-28 15:04:00,
2013-08-28 08:19:00,56.4,56.0,29.91,NNE,23,0.0,3.0,97,0.00,,,0.00,weatherlink.com 1.10,2013-08-28 15:19:00,
2013-08-28 08:34:00,57.6,57.0,29.91,NNE,17,0.0,0.0,96,0.00,,,0.00,weatherlink.com 1.10,2013-08-28 15:34:00,
2013-08-28 08:49:00,58.9,58.0,29.92,NNE,17,0.0,1.0,96,0.00,,,0.00,weatherlink.com 1.10,2013-08-28 15:49:00,
2013-08-28 09:04:00,60.9,60.0,29.92,NNE,17,0.0,0.0,96,0.00,,,0.00,weatherlink.com 1.10,2013-08-28 16:04:00,
2013-08-28 09:19:00,63.3,61.0,29.92,NNE,17,0.0,0.0,92,0.00,,,0.00,weatherlink.com 1.10,2013-08-28 16:19:00,
2013-08-28 09:34:00,63.7,61.0,29.93,SSE,147,0.0,0.0,90,0.00,,,0.00,weatherlink.com 1.10,2013-08-28 16:34:00,
2013-08-28 10:04:00,63.2,59.0,29.94,SSW,201,3.0,5.0,87,0.00,,,0.00,weatherlink.com 1.10,2013-08-28 17:04:00,
2013-08-28 10:34:00,64.1,60.0,29.94,WSW,242,1.0,5.0,87,0.00,,,0.00,weatherlink.com 1.10,2013-08-28 17:34:00,
2013-08-28 11:19:00,65.6,60.0,29.94,SW,225,5.0,7.0,83,0.00,,,0.00,weatherlink.com 1.10,2013-08-28 18:19:00,
2013-08-28 11:34:00,64.4,60.0,29.95,SSW,211,4.0,7.0,84,0.00,,,0.00,weatherlink.com 1.10,2013-08-28 18:34:00,
2013-08-28 11:49:00,64.3,59.0,29.95,SW,228,3.0,6.0,84,0.00,,,0.00,weatherlink.com 1.10,2013-08-28 18:49:00,
2013-08-28 12:04:00,65.2,61.0,29.95,SW,214,4.0,6.0,86,0.00,,,0.00,weatherlink.com 1.10,2013-08-28 19:04:00,
2013-08-28 12:19:00,66.2,62.0,29.96,SW,225,4.0,6.0,87,0.00,,,0.00,weatherlink.com 1.10,2013-08-28 19:19:00,
2013-08-28 12:34:00,66.3,62.0,29.96,SW,226,2.0,6.0,85,0.00,,,0.00,weatherlink.com 1.10,2013-08-28 19:34:00,
2013-08-28 12:49:00,66.3,62.0,29.96,SW,219,4.0,6.0,85,0.00,,,0.00,weatherlink.com 1.10,2013-08-28 19:49:00,
2013-08-28 13:04:00,65.4,62.0,29.96,SSW,212,3.0,6.0,87,0.00,,,0.00,weatherlink.com 1.10,2013-08-28 20:04:00,
2013-08-28 13:53:00,65.9,62.0,29.95,SW,214,6.0,7.0,87,0.00,,,0.00,weatherlink.com 1.10,2013-08-28 20:53:00,
2013-08-28 14:05:00,67.2,63.0,29.95,SW,219,6.0,7.0,87,0.00,,,0.00,weatherlink.com 1.10,2013-08-28 21:05:00,
2013-08-28 14:20:00,67.0,63.0,29.95,SSW,192,5.0,8.0,86,0.00,,,0.00,weatherlink.com 1.10,2013-08-28 21:20:00,
2013-08-28 14:37:00,66.1,62.0,29.95,SSW,207,6.0,7.0,86,0.00,,,0.00,weatherlink.com 1.10,2013-08-28 21:37:00,
2013-08-28 15:28:00,64.7,62.0,29.94,SSW,196,4.0,6.0,90,0.00,,,0.00,weatherlink.com 1.10,2013-08-28 22:28:00,
2013-08-28 16:11:00,62.9,61.0,29.94,SSW,211,2.0,5.0,93,0.00,,,0.00,weatherlink.com 1.10,2013-08-28 23:11:00,
2013-08-28 16:20:00,62.5,61.0,29.93,SSW,197,3.0,4.0,94,0.00,,,0.00,weatherlink.com 1.10,2013-08-28 23:20:00,
2013-08-28 16:35:00,61.8,60.0,29.94,SSW,205,2.0,3.0,95,0.00,,,0.00,weatherlink.com 1.10,2013-08-28 23:35:00,
2013-08-28 16:50:00,62.0,61.0,29.94,SSW,203,2.0,3.0,95,0.00,,,0.00,weatherlink.com 1.10,2013-08-28 23:50:00,
2013-08-28 17:05:00,61.8,60.0,29.94,SSW,202,0.0,3.0,95,0.00,,,0.00,weatherlink.com 1.10,2013-08-29 00:05:00,
2013-08-28 17:20:00,61.9,61.0,29.93,SSW,211,0.0,2.0,96,0.00,,,0.00,weatherlink.com 1.10,2013-08-29 00:20:00,
2013-08-28 17:35:00,61.9,61.0,29.93,South,186,0.0,2.0,96,0.00,,,0.00,weatherlink.com 1.10,2013-08-29 00:35:00,
2013-08-28 17:50:00,62.2,61.0,29.93,SSW,205,1.0,2.0,96,0.00,,,0.00,weatherlink.com 1.10,2013-08-29 00:50:00,
2013-08-28 18:05:00,62.2,61.0,29.93,SSW,205,0.0,1.0,96,0.00,,,0.00,weatherlink.com 1.10,2013-08-29 01:05:00,
2013-08-28 18:20:00,62.1,61.0,29.93,SSW,207,0.0,2.0,96,0.00,,,0.00,weatherlink.com 1.10,2013-08-29 01:20:00,
2013-08-28 18:35:00,61.8,61.0,29.93,SSW,202,0.0,0.0,97,0.00,,,0.00,weatherlink.com 1.10,2013-08-29 01:35:00,
2013-08-28 18:50:00,62.0,61.0,29.93,SSW,193,0.0,2.0,97,0.00,,,0.00,weatherlink.com 1.10,2013-08-29 01:50:00,
2013-08-28 19:05:00,62.2,61.0,29.92,NNE,25,0.0,0.0,97,0.00,,,0.00,weatherlink.com 1.10,2013-08-29 02:05:00,
2013-08-28 19:20:00,62.3,62.0,29.92,NNE,29,0.0,0.0,97,0.00,,,0.00,weatherlink.com 1.10,2013-08-29 02:20:00,
2013-08-28 19:50:00,61.3,61.0,29.92,South,169,0.0,0.0,97,0.00,,,0.00,weatherlink.com 1.10,2013-08-29 02:50:00,
2013-08-28 20:05:00,60.9,60.0,29.92,South,169,0.0,0.0,96,0.00,,,0.00,weatherlink.com 1.10,2013-08-29 03:05:00,
2013-08-28 20:20:00,60.8,60.0,29.92,NE,49,0.0,0.0,97,0.00,,,0.00,weatherlink.com 1.10,2013-08-29 03:20:00,
2013-08-28 20:35:00,60.8,60.0,29.93,NE,49,0.0,0.0,97,0.00,,,0.00,weatherlink.com 1.10,2013-08-29 03:35:00,
2013-08-28 20:50:00,61.1,60.0,29.93,NE,49,0.0,0.0,97,0.00,,,0.00,weatherlink.com 1.10,2013-08-29 03:50:00,
2013-08-28 21:35:00,60.3,60.0,29.94,NE,49,0.0,0.0,97,0.00,,,0.00,weatherlink.com 1.10,2013-08-29 04:35:00,
2013-08-28 21:50:00,60.8,60.0,29.94,NE,49,0.0,0.0,97,0.00,,,0.00,weatherlink.com 1.10,2013-08-29 04:50:00,
2013-08-28 22:05:00,60.9,60.0,29.95,NE,49,0.0,0.0,97,0.00,,,0.00,weatherlink.com 1.10,2013-08-29 05:05:00,
2013-08-28 22:20:00,60.8,60.0,29.95,NE,49,0.0,0.0,97,0.00,,,0.00,weatherlink.com 1.10,2013-08-29 05:20:00,
2013-08-28 22:36:00,60.7,60.0,29.95,NE,49,0.0,0.0,97,0.00,,,0.00,weatherlink.com 1.10,2013-08-29 05:36:00,
2013-08-28 22:50:00,60.1,59.0,29.96,ENE,57,0.0,0.0,97,0.00,,,0.00,weatherlink.com 1.10,2013-08-29 05:50:00,
2013-08-28 23:05:00,60.1,59.0,29.96,ENE,57,0.0,0.0,97,0.00,,,0.00,weatherlink.com 1.10,2013-08-29 06:05:00,
2013-08-28 23:20:00,60.1,59.0,29.96,ENE,57,0.0,0.0,97,0.00,,,0.00,weatherlink.com 1.10,2013-08-29 06:20:00,
2013-08-28 23:35:00,60.2,59.0,29.97,ENE,57,0.0,0.0,97,0.00,,,0.00,weatherlink.com 1.10,2013-08-29 06:35:00,
2013-08-28 23:50:00,60.6,60.0,29.97,ENE,57,0.0,0.0,97,0.00,,,0.00,weatherlink.com 1.10,2013-08-29 06:50:00,